When you browse on this site, cookies collect data to enhance your experience and personalize the content and advertising you see.
Visit our Privacy Policy to learn more. By continuing to use the site, you agree to this use of cookies and data.
EN

Hourly Weather Steinsel

Today, 8 August, Saturday

Time Temperature Precipitation Wind Pressure Humidity
00:00 +23°C° 0 mm 2 mps 732 mmHg 66%
01:00 +22°C° 0 mm 1 mps 732 mmHg 69%
02:00 +22°C° 0 mm 1 mps 732 mmHg 72%
03:00 +21°C° 0 mm 1 mps 731 mmHg 76%
04:00 +22°C° 0 mm 1 mps 732 mmHg 74%
05:00 +23°C° 0 mm 1 mps 732 mmHg 73%
06:00 +24°C° 0 mm 1 mps 732 mmHg 69%
07:00 +26°C° 0 mm 1 mps 733 mmHg 62%
08:00 +28°C° 0 mm 1 mps 733 mmHg 55%
09:00 +31°C° 0 mm 1 mps 733 mmHg 49%
10:00 +32°C° 0 mm 1 mps 733 mmHg 44%
11:00 +34°C° 0 mm 2 mps 733 mmHg 39%
12:00 +35°C° 0 mm 2 mps 733 mmHg 34%
13:00 +35°C° 0 mm 2 mps 732 mmHg 33%
14:00 +36°C° 0 mm 2 mps 732 mmHg 32%
15:00 +36°C° 0 mm 2 mps 732 mmHg 30%
16:00 +34°C° 0 mm 2 mps 732 mmHg 37%
17:00 +32°C° 0 mm 1 mps 732 mmHg 43%
18:00 +30°C° 0 mm 1 mps 731 mmHg 50%
19:00 +28°C° 0 mm 1 mps 731 mmHg 53%
20:00 +26°C° 0 mm 1 mps 731 mmHg 56%
21:00 +25°C° 0 mm 1 mps 731 mmHg 59%
22:00 +24°C° 0 mm 1 mps 731 mmHg 60%
23:00 +24°C° 0 mm 1 mps 731 mmHg 62%

Tomorrow, 9 August, Sunday

Time Temperature Precipitation Wind Pressure Humidity
00:00 +23°C° 0 mm 1 mps 731 mmHg 64%
01:00 +23°C° 0 mm 1 mps 731 mmHg 66%
02:00 +22°C° 0 mm 1 mps 731 mmHg 68%
03:00 +20°C° 0 mm 0 mps 731 mmHg 70%
04:00 +23°C° 0 mm 1 mps 731 mmHg 68%
05:00 +23°C° 0 mm 1 mps 731 mmHg 67%
06:00 +24°C° 0 mm 1 mps 731 mmHg 65%
07:00 +27°C° 0 mm 1 mps 731 mmHg 58%
08:00 +29°C° 0 mm 2 mps 731 mmHg 51%
09:00 +31°C° 0 mm 2 mps 731 mmHg 44%
10:00 +32°C° 0 mm 2 mps 731 mmHg 40%
11:00 +34°C° 0 mm 2 mps 731 mmHg 35%
12:00 +35°C° 0 mm 3 mps 731 mmHg 31%
13:00 +35°C° 0 mm 3 mps 730 mmHg 31%
14:00 +35°C° 0 mm 3 mps 730 mmHg 31%
15:00 +35°C° 0 mm 3 mps 730 mmHg 31%
16:00 +34°C° 0 mm 3 mps 730 mmHg 36%
17:00 +31°C° 0 mm 3 mps 729 mmHg 42%
18:00 +30°C° 0 mm 2 mps 729 mmHg 47%
19:00 +28°C° 0 mm 2 mps 729 mmHg 50%
20:00 +26°C° 0 mm 2 mps 729 mmHg 53%
21:00 +25°C° 0 mm 1 mps 729 mmHg 55%
22:00 +24°C° 0 mm 1 mps 729 mmHg 59%
23:00 +23°C° 0 mm 1 mps 729 mmHg 63%

Day after tomorrow, 10 August, Monday

Time Temperature Precipitation Wind Pressure Humidity
00:00 +22°C° 0 mm 1 mps 729 mmHg 66%
01:00 +22°C° 0 mm 1 mps 728 mmHg 68%
02:00 +22°C° 0 mm 1 mps 728 mmHg 71%
03:00 +21°C° 0 mm 1 mps 728 mmHg 73%
04:00 +22°C° 0 mm 1 mps 728 mmHg 71%
05:00 +23°C° 0 mm 1 mps 728 mmHg 70%
06:00 +24°C° 0 mm 1 mps 728 mmHg 68%
07:00 +26°C° 0 mm 2 mps 728 mmHg 60%
08:00 +28°C° 0 mm 3 mps 729 mmHg 52%
09:00 +30°C° 0 mm 3 mps 729 mmHg 44%
10:00 +32°C° 0 mm 4 mps 729 mmHg 41%
11:00 +33°C° 0 mm 4 mps 729 mmHg 38%
12:00 +34°C° 0 mm 4 mps 729 mmHg 34%
13:00 +34°C° 0 mm 4 mps 729 mmHg 34%
14:00 +34°C° 0 mm 4 mps 728 mmHg 34%
15:00 +34°C° 0 mm 4 mps 728 mmHg 34%
16:00 +33°C° 0 mm 3 mps 728 mmHg 39%
17:00 +31°C° 0 mm 3 mps 728 mmHg 44%
18:00 +30°C° 0 mm 2 mps 727 mmHg 48%
19:00 +28°C° 0 mm 2 mps 728 mmHg 52%
20:00 +26°C° 0 mm 2 mps 728 mmHg 56%
21:00 +24°C° 0 mm 2 mps 728 mmHg 60%
22:00 +24°C° 0 mm 2 mps 728 mmHg 62%
23:00 +23°C° 0 mm 2 mps 728 mmHg 65%

11 August, Tuesday

Time Temperature Precipitation Wind Pressure Humidity
00:00 +22°C° 0 mm 1 mps 728 mmHg 67%
01:00 +22°C° 0 mm 1 mps 728 mmHg 69%
02:00 +22°C° 0 mm 1 mps 728 mmHg 70%
03:00 +21°C° 0 mm 1 mps 728 mmHg 71%
04:00 +22°C° 0 mm 1 mps 728 mmHg 70%
05:00 +23°C° 0 mm 1 mps 728 mmHg 68%
06:00 +23°C° 0 mm 1 mps 728 mmHg 67%
07:00 +26°C° 0 mm 2 mps 728 mmHg 60%
08:00 +28°C° 0 mm 2 mps 729 mmHg 53%
09:00 +30°C° 0 mm 2 mps 729 mmHg 47%
10:00 +31°C° 0 mm 3 mps 729 mmHg 43%
11:00 +33°C° 0 mm 3 mps 729 mmHg 39%
12:00 +34°C° 0 mm 3 mps 729 mmHg 35%
13:00 +35°C° 0 mm 3 mps 729 mmHg 35%
14:00 +35°C° 0 mm 3 mps 728 mmHg 35%
15:00 +35°C° 0 mm 3 mps 728 mmHg 34%
16:00 +34°C° 0 mm 3 mps 728 mmHg 39%
17:00 +31°C° 0 mm 3 mps 728 mmHg 44%
18:00 +30°C° 0 mm 3 mps 727 mmHg 49%
19:00 +28°C° 0 mm 3 mps 727 mmHg 52%
20:00 +27°C° 0 mm 3 mps 728 mmHg 54%
21:00 +25°C° 0 mm 2 mps 728 mmHg 57%
22:00 +24°C° 0 mm 2 mps 728 mmHg 61%
23:00 +24°C° 0 mm 2 mps 728 mmHg 66%

12 August, Wednesday

Time Temperature Precipitation Wind Pressure Humidity
00:00 +23°C° 0 mm 2 mps 728 mmHg 70%
01:00 +23°C° 0 mm 2 mps 727 mmHg 72%
02:00 +21°C° 0 mm 2 mps 727 mmHg 74%
03:00 +21°C° 0 mm 2 mps 727 mmHg 77%
04:00 +21°C° 0 mm 2 mps 727 mmHg 75%
05:00 +23°C° 0 mm 2 mps 727 mmHg 74%
06:00 +24°C° 0 mm 2 mps 727 mmHg 72%
07:00 +26°C° 0 mm 3 mps 727 mmHg 65%
08:00 +28°C° 0 mm 4 mps 727 mmHg 57%
09:00 +30°C° 0 mm 4 mps 728 mmHg 50%
10:00 +32°C° 0 mm 4 mps 727 mmHg 46%
11:00 +34°C° 0 mm 4 mps 727 mmHg 42%
12:00 +35°C° 0 mm 4 mps 727 mmHg 38%
13:00 +35°C° 0 mm 4 mps 727 mmHg 37%
14:00 +35°C° 0 mm 4 mps 727 mmHg 36%
15:00 +35°C° 0 mm 3 mps 726 mmHg 35%
16:00 +33°C° 0.3 mm 4 mps 726 mmHg 43%
17:00 +30°C° 0.3 mm 4 mps 726 mmHg 51%
18:00 +28°C° 0.3 mm 4 mps 725 mmHg 59%
19:00 +25°C° 1.8 mm 3 mps 726 mmHg 67%
20:00 +23°C° 1.8 mm 2 mps 726 mmHg 75%
21:00 +19°C° 1.8 mm 0 mps 726 mmHg 82%
22:00 +21°C° 0.4 mm 1 mps 726 mmHg 83%
23:00 +21°C° 0.4 mm 1 mps 726 mmHg 85%

13 August, Thursday

Time Temperature Precipitation Wind Pressure Humidity
00:00 +21°C° 0.4 mm 1 mps 726 mmHg 86%
01:00 +20°C° 0.1 mm 1 mps 726 mmHg 89%
02:00 +19°C° 0.1 mm 2 mps 726 mmHg 92%
03:00 +18°C° 0.1 mm 2 mps 726 mmHg 95%
04:00 +18°C° 0.5 mm 2 mps 727 mmHg 94%
05:00 +19°C° 0.5 mm 3 mps 727 mmHg 94%
06:00 +19°C° 0.5 mm 3 mps 728 mmHg 93%
07:00 +20°C° 0 mm 3 mps 728 mmHg 87%
08:00 +21°C° 0 mm 4 mps 728 mmHg 81%
09:00 +21°C° 0 mm 4 mps 729 mmHg 75%
10:00 +23°C° 0 mm 4 mps 729 mmHg 67%
11:00 +25°C° 0 mm 4 mps 729 mmHg 59%
12:00 +27°C° 0 mm 4 mps 729 mmHg 51%
13:00 +27°C° 0 mm 4 mps 729 mmHg 50%
14:00 +27°C° 0 mm 4 mps 729 mmHg 49%
15:00 +27°C° 0 mm 3 mps 729 mmHg 48%
16:00 +26°C° 0 mm 3 mps 729 mmHg 52%
17:00 +25°C° 0 mm 2 mps 729 mmHg 57%
18:00 +24°C° 0 mm 2 mps 729 mmHg 61%
19:00 +23°C° 0 mm 1 mps 729 mmHg 64%
20:00 +22°C° 0 mm 1 mps 729 mmHg 68%
21:00 +18°C° 0 mm 0 mps 729 mmHg 71%
22:00 +20°C° 0 mm 1 mps 728 mmHg 73%
23:00 +19°C° 0 mm 1 mps 728 mmHg 75%
Show more